Location: Newark
(38.1091°N, 103.8677°W)
Time: 07:58:24
(UTC+00:00)

N. Korean satellite - Visible Passes

Search period start: 21 October 2019 00:00
Search period end: 31 October 2019 00:00
Orbit: 455 x 508 km, 97.2° (Epoch: 20 October)

Date Brightness Start Highest point End Pass type
(mag) Time Alt. Az. Time Alt. Az. Time Alt. Az.
21 Oct 9.6 00:49:55 10° SW 00:52:33 21° W 00:55:13 10° NW visible
21 Oct 8.9 12:16:59 10° NE 12:20:14 30° E 12:23:29 10° SSE visible
22 Oct 10.1 11:52:42 10° ENE 11:54:48 15° E 11:56:54 10° SE visible
24 Oct 10.2 01:08:38 10° WSW 01:10:07 12° W 01:11:36 10° WNW visible
24 Oct 7.6 12:34:09 10° NNE 12:37:44 52° E 12:41:21 10° S visible
25 Oct 9.1 00:41:44 10° SSW 00:44:39 26° W 00:47:37 10° NW visible
25 Oct 9.3 12:09:19 10° NE 12:12:21 24° E 12:15:25 10° SSE visible
26 Oct 10.4 11:45:29 10° ENE 11:46:53 12° E 11:48:19 10° ESE visible
28 Oct 9.9 01:00:01 10° SW 01:02:09 16° W 01:04:20 10° NW visible
28 Oct 8.2 12:26:21 10° NNE 12:29:51 41° E 12:33:23 10° S visible
29 Oct 8.5 00:33:33 10° SSW 00:36:42 33° W 00:39:54 10° NNW visible
29 Oct 9.7 12:01:41 10° NE 12:04:27 20° E 12:07:12 10° SE visible
